Location: Axtheid
(49.6213°N, 11.8205°E)
Time: 09:21:28
(UTC+00:00)

STARLINK-1088 - Pass Details

Date: 18 February 2020
Orbit: 379 x 380 km, 53.0° (Epoch: 04 April)

Event Time Altitude Azimuth Distance (km) Brightness Sun altitude
Exits shadow 04:19:24 17° 173° (S) 1,086 5.1 -19.9°
Drops below altitude 10° 04:23:08 10° 89° (E) 1,415 7.0 -19.3°
Enters shadow 05:17:36 -72° 245° (WSW) 12,528 10.4 -10.4°
Maximum altitude 05:56:16 83° 335° (NNW) 395 2.9 -4.3°
